Year,Month,Day,Hour,Minute,Value (Times are PST for temperature in C)
2011,10,16,00,00,3.80
2011,10,16,00,01,3.80
2011,10,16,00,02,3.80
2011,10,16,00,03,3.80
2011,10,16,00,04,3.80
2011,10,16,00,05,3.70
2011,10,16,00,06,3.70
2011,10,16,00,07,3.70
2011,10,16,00,08,3.70
2011,10,16,00,09,3.70
2011,10,16,00,10,3.60
2011,10,16,00,11,3.60
2011,10,16,00,12,3.60
2011,10,16,00,13,3.50
2011,10,16,00,14,3.50
2011,10,16,00,15,3.50
2011,10,16,00,16,3.40
2011,10,16,00,17,3.40
2011,10,16,00,18,3.40
2011,10,16,00,19,3.40
2011,10,16,00,20,3.40
2011,10,16,00,21,3.40
2011,10,16,00,22,3.30
2011,10,16,00,23,3.30
2011,10,16,00,24,3.30
2011,10,16,00,25,3.30
2011,10,16,00,26,3.30
2011,10,16,00,27,3.30
2011,10,16,00,28,3.30
2011,10,16,00,29,3.20
2011,10,16,00,30,3.20
2011,10,16,00,31,3.20
2011,10,16,00,32,3.20
2011,10,16,00,33,3.20
2011,10,16,00,34,3.20
2011,10,16,00,35,3.30
2011,10,16,00,36,3.30
2011,10,16,00,37,3.30
2011,10,16,00,38,3.30
2011,10,16,00,39,3.40
2011,10,16,00,40,3.40
2011,10,16,00,41,3.40
2011,10,16,00,42,3.40
2011,10,16,00,43,3.30
2011,10,16,00,44,3.30
2011,10,16,00,45,3.30
2011,10,16,00,46,3.30
2011,10,16,00,47,3.30
2011,10,16,00,48,3.30
2011,10,16,00,49,3.20
2011,10,16,00,50,3.20
2011,10,16,00,51,3.20
2011,10,16,00,52,3.20
2011,10,16,00,53,3.10
2011,10,16,00,54,3.10
2011,10,16,00,55,3.10
2011,10,16,00,56,3.10
2011,10,16,00,57,3.10
2011,10,16,00,58,3.10
2011,10,16,00,59,3.20
2011,10,16,01,00,3.20
2011,10,16,01,01,3.20
2011,10,16,01,02,3.30
2011,10,16,01,03,3.30
2011,10,16,01,04,3.30
2011,10,16,01,05,3.30
2011,10,16,01,06,3.30
2011,10,16,01,07,3.30
2011,10,16,01,08,3.20
2011,10,16,01,09,3.20
2011,10,16,01,10,3.20
2011,10,16,01,11,3.20
2011,10,16,01,12,3.20
2011,10,16,01,13,3.20
2011,10,16,01,14,3.20
2011,10,16,01,15,3.20
2011,10,16,01,16,3.20
2011,10,16,01,17,3.20
2011,10,16,01,18,3.20
2011,10,16,01,19,3.20
2011,10,16,01,20,3.20
2011,10,16,01,21,3.10
2011,10,16,01,22,3.10
2011,10,16,01,23,3.10
2011,10,16,01,24,3.10
2011,10,16,01,25,3.00
2011,10,16,01,26,3.00
2011,10,16,01,27,3.00
2011,10,16,01,28,3.00
2011,10,16,01,29,2.90
2011,10,16,01,30,2.90
2011,10,16,01,31,3.00
2011,10,16,01,32,3.00
2011,10,16,01,33,3.00
2011,10,16,01,34,3.00
2011,10,16,01,35,3.00
2011,10,16,01,36,3.10
2011,10,16,01,37,3.10
2011,10,16,01,38,3.10
2011,10,16,01,39,3.10
2011,10,16,01,40,3.10
2011,10,16,01,41,3.10
2011,10,16,01,42,3.10
2011,10,16,01,43,3.10
2011,10,16,01,44,3.20
2011,10,16,01,45,3.20
2011,10,16,01,46,3.20
2011,10,16,01,47,3.20
2011,10,16,01,48,3.20
2011,10,16,01,49,3.20
2011,10,16,01,50,3.20
2011,10,16,01,51,3.20
2011,10,16,01,52,3.20
2011,10,16,01,53,3.20
2011,10,16,01,54,3.20
2011,10,16,01,55,3.20
2011,10,16,01,56,3.20
2011,10,16,01,57,3.20
2011,10,16,01,58,3.20
2011,10,16,01,59,3.20
2011,10,16,02,00,3.20
2011,10,16,02,01,3.10
2011,10,16,02,02,3.10
2011,10,16,02,03,3.10
2011,10,16,02,04,3.10
2011,10,16,02,05,3.10
2011,10,16,02,06,3.10
2011,10,16,02,07,3.10
2011,10,16,02,08,3.10
2011,10,16,02,09,3.10
2011,10,16,02,10,3.10
2011,10,16,02,11,3.10
2011,10,16,02,12,3.00
2011,10,16,02,13,3.00
2011,10,16,02,14,3.00
2011,10,16,02,15,2.90
2011,10,16,02,16,2.90
2011,10,16,02,17,2.90
2011,10,16,02,18,2.90
2011,10,16,02,19,2.80
2011,10,16,02,20,2.80
2011,10,16,02,21,2.80
2011,10,16,02,22,2.80
2011,10,16,02,23,2.80
2011,10,16,02,24,2.80
2011,10,16,02,25,2.80
2011,10,16,02,26,2.70
2011,10,16,02,27,2.70
2011,10,16,02,28,2.70
2011,10,16,02,29,2.70
2011,10,16,02,30,2.80
2011,10,16,02,31,2.80
2011,10,16,02,32,2.80
2011,10,16,02,33,2.80
2011,10,16,02,34,2.80
2011,10,16,02,35,2.80
2011,10,16,02,36,2.80
2011,10,16,02,37,2.80
2011,10,16,02,38,2.70
2011,10,16,02,39,2.70
2011,10,16,02,40,2.70
2011,10,16,02,41,2.70
2011,10,16,02,42,2.70
2011,10,16,02,43,2.60
2011,10,16,02,44,2.70
2011,10,16,02,45,2.70
2011,10,16,02,46,2.60
2011,10,16,02,47,2.60
2011,10,16,02,48,2.60
2011,10,16,02,49,2.60
2011,10,16,02,50,2.60
2011,10,16,02,51,2.60
2011,10,16,02,52,2.60
2011,10,16,02,53,2.60
2011,10,16,02,54,2.50
2011,10,16,02,55,2.50
2011,10,16,02,56,2.50
2011,10,16,02,57,2.50
2011,10,16,02,58,2.50
2011,10,16,02,59,2.50
2011,10,16,03,00,2.60
2011,10,16,03,01,2.60
2011,10,16,03,02,2.60
2011,10,16,03,03,2.60
2011,10,16,03,06,2.60
2011,10,16,03,07,2.60
2011,10,16,03,08,2.70
2011,10,16,03,09,2.70
2011,10,16,03,10,2.70
2011,10,16,03,11,2.70
2011,10,16,03,12,2.70
2011,10,16,03,13,2.70
2011,10,16,03,14,2.70
2011,10,16,03,15,2.70
2011,10,16,03,16,2.70
2011,10,16,03,17,2.70
2011,10,16,03,18,2.60
2011,10,16,03,19,2.70
2011,10,16,03,20,2.70
2011,10,16,03,21,2.70
2011,10,16,03,22,2.70
2011,10,16,03,23,2.70
2011,10,16,03,24,2.70
2011,10,16,03,25,2.80
2011,10,16,03,26,2.80
2011,10,16,03,27,2.80
2011,10,16,03,28,2.80
2011,10,16,03,29,2.80
2011,10,16,03,30,2.80
2011,10,16,03,31,2.80
2011,10,16,03,32,2.80
2011,10,16,03,33,2.70
2011,10,16,03,34,2.70
2011,10,16,03,35,2.70
2011,10,16,03,36,2.70
2011,10,16,03,37,2.70
2011,10,16,03,38,2.70
2011,10,16,03,39,2.70
2011,10,16,03,41,2.70
2011,10,16,03,42,2.70
2011,10,16,03,43,2.70
2011,10,16,03,44,2.70
2011,10,16,03,45,2.70
2011,10,16,03,46,2.70
2011,10,16,03,47,2.70
2011,10,16,03,48,2.60
2011,10,16,03,49,2.60
2011,10,16,03,50,2.60
2011,10,16,03,51,2.60
2011,10,16,03,52,2.60
2011,10,16,03,53,2.60
2011,10,16,03,54,2.60
2011,10,16,03,55,2.60
2011,10,16,03,56,2.60
2011,10,16,03,57,2.60
2011,10,16,03,58,2.60
2011,10,16,03,59,2.60
2011,10,16,04,00,2.60
2011,10,16,04,01,2.70
2011,10,16,04,02,2.70
2011,10,16,04,03,2.70
2011,10,16,04,04,2.70
2011,10,16,04,05,2.70
2011,10,16,04,06,2.70
2011,10,16,04,07,2.70
2011,10,16,04,08,2.70
2011,10,16,04,09,2.70
2011,10,16,04,10,2.70
2011,10,16,04,11,2.70
2011,10,16,04,12,2.70
2011,10,16,04,13,2.70
2011,10,16,04,14,2.70
2011,10,16,04,15,2.70
2011,10,16,04,16,2.70
2011,10,16,04,17,2.60
2011,10,16,04,18,2.60
2011,10,16,04,19,2.60
2011,10,16,04,20,2.60
2011,10,16,04,21,2.60
2011,10,16,04,22,2.60
2011,10,16,04,23,2.50
2011,10,16,04,24,2.50
2011,10,16,04,25,2.50
2011,10,16,04,26,2.50
2011,10,16,04,27,2.50
2011,10,16,04,28,2.50
2011,10,16,04,29,2.50
2011,10,16,04,30,2.50
2011,10,16,04,31,2.40
2011,10,16,04,32,2.40
2011,10,16,04,33,2.40
2011,10,16,04,34,2.40
2011,10,16,04,35,2.40
2011,10,16,04,36,2.40
2011,10,16,04,37,2.40
2011,10,16,04,38,2.40
2011,10,16,04,39,2.40
2011,10,16,04,40,2.40
2011,10,16,04,41,2.40
2011,10,16,04,42,2.30
2011,10,16,04,43,2.30
2011,10,16,04,44,2.30
2011,10,16,04,45,2.30
2011,10,16,04,46,2.30
2011,10,16,04,47,2.30
2011,10,16,04,48,2.30
2011,10,16,04,49,2.30
2011,10,16,04,50,2.30
2011,10,16,04,51,2.30
2011,10,16,04,52,2.30
2011,10,16,04,53,2.30
2011,10,16,04,54,2.30
2011,10,16,04,55,2.30
2011,10,16,04,56,2.30
2011,10,16,04,57,2.30
2011,10,16,04,58,2.30
2011,10,16,04,59,2.30
2011,10,16,05,00,2.30
2011,10,16,05,01,2.30
2011,10,16,05,02,2.30
2011,10,16,05,03,2.30
2011,10,16,05,04,2.20
2011,10,16,05,05,2.20
2011,10,16,05,06,2.20
2011,10,16,05,07,2.20
2011,10,16,05,08,2.20
2011,10,16,05,09,2.10
2011,10,16,05,10,2.10
2011,10,16,05,11,2.10
2011,10,16,05,12,2.10
2011,10,16,05,13,2.10
2011,10,16,05,14,2.10
2011,10,16,05,15,2.10
2011,10,16,05,16,2.10
2011,10,16,05,17,2.10
2011,10,16,05,18,2.10
2011,10,16,05,19,2.10
2011,10,16,05,20,2.10
2011,10,16,05,21,2.00
2011,10,16,05,22,2.10
2011,10,16,05,23,2.10
2011,10,16,05,24,2.10
2011,10,16,05,25,2.10
2011,10,16,05,26,2.10
2011,10,16,05,27,2.10
2011,10,16,05,28,2.10
2011,10,16,05,29,2.10
2011,10,16,05,30,2.10
2011,10,16,05,31,2.10
2011,10,16,05,32,2.10
2011,10,16,05,33,2.00
2011,10,16,05,34,2.00
2011,10,16,05,35,2.00
2011,10,16,05,36,2.00
2011,10,16,05,37,2.00
2011,10,16,05,38,1.90
2011,10,16,05,39,1.90
2011,10,16,05,40,1.90
2011,10,16,05,41,1.90
2011,10,16,05,42,1.90
2011,10,16,05,43,1.90
2011,10,16,05,44,1.90
2011,10,16,05,45,1.90
2011,10,16,05,46,2.00
2011,10,16,05,47,2.00
2011,10,16,05,48,2.00
2011,10,16,05,49,2.00
2011,10,16,05,50,2.00
2011,10,16,05,51,2.00
2011,10,16,05,52,2.00
2011,10,16,05,53,2.00
2011,10,16,05,54,2.00
2011,10,16,05,55,1.90
2011,10,16,05,56,1.90
2011,10,16,05,57,1.90
2011,10,16,05,58,1.90
2011,10,16,05,59,1.90
2011,10,16,06,00,1.90
2011,10,16,06,01,1.90
2011,10,16,06,02,1.90
2011,10,16,06,03,1.80
2011,10,16,06,04,1.80
2011,10,16,06,05,1.80
2011,10,16,06,06,1.80
2011,10,16,06,07,1.80
2011,10,16,06,08,1.80
2011,10,16,06,09,1.80
2011,10,16,06,10,1.80
2011,10,16,06,11,1.80
2011,10,16,06,12,1.80
2011,10,16,06,13,1.90
2011,10,16,06,14,1.90
2011,10,16,06,15,1.90
2011,10,16,06,16,1.90
2011,10,16,06,17,1.80
2011,10,16,06,18,1.90
2011,10,16,06,19,1.90
2011,10,16,06,20,1.90
2011,10,16,06,21,1.90
2011,10,16,06,22,1.90
2011,10,16,06,23,1.90
2011,10,16,06,24,1.90
2011,10,16,06,25,1.90
2011,10,16,06,26,1.90
2011,10,16,06,27,1.90
2011,10,16,06,28,1.90
2011,10,16,06,29,1.90
2011,10,16,06,30,1.90
2011,10,16,06,31,1.90
2011,10,16,06,32,2.00
2011,10,16,06,33,2.00
2011,10,16,06,34,2.10
2011,10,16,06,35,2.10
2011,10,16,06,36,2.10
2011,10,16,06,37,2.10
2011,10,16,06,38,2.20
2011,10,16,06,39,2.20
2011,10,16,06,40,2.20
2011,10,16,06,41,2.20
2011,10,16,06,42,2.20
2011,10,16,06,43,2.20
2011,10,16,06,44,2.20
2011,10,16,06,45,2.20
2011,10,16,06,46,2.20
2011,10,16,06,47,2.20
2011,10,16,06,48,2.20
2011,10,16,06,49,2.20
2011,10,16,06,50,2.20
2011,10,16,06,51,2.20
2011,10,16,06,52,2.20
2011,10,16,06,53,2.20
2011,10,16,06,54,2.20
2011,10,16,06,55,2.20
2011,10,16,06,56,2.20
2011,10,16,06,57,2.20
2011,10,16,06,58,2.20
2011,10,16,06,59,2.20
2011,10,16,07,00,2.20
2011,10,16,07,01,2.20
2011,10,16,07,02,2.20
2011,10,16,07,03,2.20
2011,10,16,07,04,2.20
2011,10,16,07,05,2.20
2011,10,16,07,06,2.20
2011,10,16,07,07,2.20
2011,10,16,07,08,2.20
2011,10,16,07,09,2.20
2011,10,16,07,10,2.20
2011,10,16,07,11,2.20
2011,10,16,07,12,2.20
2011,10,16,07,13,2.20
2011,10,16,07,14,2.20
2011,10,16,07,15,2.20
2011,10,16,07,16,2.20
2011,10,16,07,17,2.20
2011,10,16,07,18,2.20
2011,10,16,07,19,2.20
2011,10,16,07,20,2.20
2011,10,16,07,21,2.20
2011,10,16,07,22,2.20
2011,10,16,07,23,2.20
2011,10,16,07,24,2.20
2011,10,16,07,25,2.30
2011,10,16,07,26,2.30
2011,10,16,07,27,2.30
2011,10,16,07,28,2.30
2011,10,16,07,29,2.30
2011,10,16,07,30,2.30
2011,10,16,07,31,2.30
2011,10,16,07,32,2.40
2011,10,16,07,33,2.40
2011,10,16,07,34,2.40
2011,10,16,07,35,2.40
2011,10,16,07,36,2.40
2011,10,16,07,37,2.40
2011,10,16,07,38,2.50
2011,10,16,07,39,2.50
2011,10,16,07,40,2.50
2011,10,16,07,41,2.50
2011,10,16,07,42,2.50
2011,10,16,07,43,2.50
2011,10,16,07,44,2.50
2011,10,16,07,45,2.50
2011,10,16,07,46,2.50
2011,10,16,07,47,2.50
2011,10,16,07,48,2.50
2011,10,16,07,49,2.50
2011,10,16,07,50,2.40
2011,10,16,07,51,2.40
2011,10,16,07,52,2.40
2011,10,16,07,53,2.40
2011,10,16,07,54,2.40
2011,10,16,07,55,2.40
2011,10,16,07,56,2.40
2011,10,16,07,57,2.30
2011,10,16,07,58,2.30
2011,10,16,07,59,2.30
2011,10,16,08,00,2.30
2011,10,16,08,01,2.20
2011,10,16,08,02,2.20
2011,10,16,08,03,2.20
2011,10,16,08,04,2.20
2011,10,16,08,05,2.20
2011,10,16,08,06,2.10
2011,10,16,08,07,2.10
2011,10,16,08,08,2.10
2011,10,16,08,09,2.10
2011,10,16,08,10,2.10
2011,10,16,08,11,2.10
2011,10,16,08,12,2.10
2011,10,16,08,13,2.10
2011,10,16,08,14,2.10
2011,10,16,08,15,2.10
2011,10,16,08,16,2.10
2011,10,16,08,17,2.10
2011,10,16,08,18,2.10
2011,10,16,08,19,2.10
2011,10,16,08,20,2.10
2011,10,16,08,21,2.10
2011,10,16,08,22,2.10
2011,10,16,08,23,2.10
2011,10,16,08,24,2.10
2011,10,16,08,25,2.10
2011,10,16,08,26,2.10
2011,10,16,08,27,2.10
2011,10,16,08,28,2.10
2011,10,16,08,29,2.10
2011,10,16,08,30,2.20
2011,10,16,08,31,2.20
2011,10,16,08,32,2.20
2011,10,16,08,33,2.20
2011,10,16,08,34,2.20
2011,10,16,08,35,2.20
2011,10,16,08,36,2.20
2011,10,16,08,37,2.20
2011,10,16,08,38,2.20
2011,10,16,08,39,2.20
2011,10,16,08,40,2.20
2011,10,16,08,41,2.30
2011,10,16,08,42,2.30
2011,10,16,08,43,2.30
2011,10,16,08,44,2.30
2011,10,16,08,45,2.30
2011,10,16,08,46,2.40
2011,10,16,08,47,2.40
2011,10,16,08,48,2.40
2011,10,16,08,49,2.40
2011,10,16,08,50,2.40
2011,10,16,08,51,2.40
2011,10,16,08,52,2.40
2011,10,16,08,53,2.40
2011,10,16,08,54,2.50
2011,10,16,08,55,2.50
2011,10,16,08,56,2.50
2011,10,16,08,57,2.60
2011,10,16,08,58,2.60
2011,10,16,08,59,2.60
2011,10,16,09,00,2.60
2011,10,16,09,01,2.70
2011,10,16,09,02,2.70
2011,10,16,09,03,2.70
2011,10,16,09,04,2.80
2011,10,16,09,05,2.80
2011,10,16,09,06,2.80
2011,10,16,09,07,2.80
2011,10,16,09,08,2.90
2011,10,16,09,09,2.90
2011,10,16,09,10,2.90
2011,10,16,09,11,3.00
2011,10,16,09,12,3.00
2011,10,16,09,13,3.00
2011,10,16,09,14,3.00
2011,10,16,09,15,3.00
2011,10,16,09,16,3.00
2011,10,16,09,17,3.10
2011,10,16,09,18,3.10
2011,10,16,09,19,3.10
2011,10,16,09,20,3.10
2011,10,16,09,21,3.20
2011,10,16,09,22,3.20
2011,10,16,09,23,3.20
2011,10,16,09,24,3.20
2011,10,16,09,25,3.20
2011,10,16,09,26,3.30
2011,10,16,09,27,3.30
2011,10,16,09,28,3.30
2011,10,16,09,29,3.30
2011,10,16,09,30,3.40
2011,10,16,09,31,3.40
2011,10,16,09,32,3.50
2011,10,16,09,33,3.50
2011,10,16,09,34,3.50
2011,10,16,09,35,3.60
2011,10,16,09,36,3.60
2011,10,16,09,37,3.70
2011,10,16,09,38,3.70
2011,10,16,09,39,3.70
2011,10,16,09,40,3.80
2011,10,16,09,41,3.80
2011,10,16,09,42,3.80
2011,10,16,09,43,3.90
2011,10,16,09,44,3.90
2011,10,16,09,45,3.90
2011,10,16,09,46,4.00
2011,10,16,09,47,4.00
2011,10,16,09,48,4.00
2011,10,16,09,49,4.10
2011,10,16,09,50,4.10
2011,10,16,09,51,4.10
2011,10,16,09,52,4.20
2011,10,16,09,53,4.20
2011,10,16,09,54,4.30
2011,10,16,09,55,4.30
2011,10,16,09,56,4.40
2011,10,16,09,57,4.40
2011,10,16,09,58,4.40
2011,10,16,09,59,4.50
2011,10,16,10,00,4.60
2011,10,16,10,01,4.60
2011,10,16,10,02,4.70
2011,10,16,10,03,4.70
2011,10,16,10,04,4.80
2011,10,16,10,05,4.80
2011,10,16,10,06,4.80
2011,10,16,10,07,4.90
2011,10,16,10,08,4.90
2011,10,16,10,09,4.90
2011,10,16,10,10,5.00
2011,10,16,10,11,5.00
2011,10,16,10,12,5.00
2011,10,16,10,13,5.10
2011,10,16,10,14,5.10
2011,10,16,10,15,5.10
2011,10,16,10,16,5.10
2011,10,16,10,17,5.20
2011,10,16,10,18,5.30
2011,10,16,10,19,5.40
2011,10,16,10,20,5.40
2011,10,16,10,21,5.50
2011,10,16,10,22,5.50
2011,10,16,10,23,5.60
2011,10,16,10,24,5.70
2011,10,16,10,25,5.70
2011,10,16,10,26,5.70
2011,10,16,10,27,5.80
2011,10,16,10,28,5.80
2011,10,16,10,29,5.80
2011,10,16,10,30,5.90
2011,10,16,10,31,5.90
2011,10,16,10,32,5.90
2011,10,16,10,33,6.00
2011,10,16,10,34,6.00
2011,10,16,10,35,6.10
2011,10,16,10,36,6.10
2011,10,16,10,37,6.20
2011,10,16,10,38,6.30
2011,10,16,10,39,6.30
2011,10,16,10,40,6.40
2011,10,16,10,41,6.50
2011,10,16,10,42,6.60
2011,10,16,10,43,6.70
2011,10,16,10,44,6.80
2011,10,16,10,45,6.90
2011,10,16,10,46,6.90
2011,10,16,10,47,7.00
2011,10,16,10,48,7.10
2011,10,16,10,49,7.20
2011,10,16,10,50,7.30
2011,10,16,10,51,7.40
2011,10,16,10,52,7.50
2011,10,16,10,53,7.50
2011,10,16,10,54,7.60
2011,10,16,10,55,7.70
2011,10,16,10,56,7.80
2011,10,16,10,57,7.90
2011,10,16,10,58,8.00
2011,10,16,10,59,8.10
2011,10,16,11,00,8.20
2011,10,16,11,01,8.30
2011,10,16,11,02,8.40
2011,10,16,11,03,8.40
2011,10,16,11,04,8.50
2011,10,16,11,05,8.60
2011,10,16,11,06,8.60
2011,10,16,11,07,8.60
2011,10,16,11,08,8.60
2011,10,16,11,09,8.70
2011,10,16,11,10,8.70
2011,10,16,11,11,8.80
2011,10,16,11,12,8.80
2011,10,16,11,13,8.90
2011,10,16,11,14,9.00
2011,10,16,11,15,9.10
2011,10,16,11,16,9.10
2011,10,16,11,17,9.20
2011,10,16,11,18,9.30
2011,10,16,11,19,9.30
2011,10,16,11,20,9.40
2011,10,16,11,21,9.50
2011,10,16,11,22,9.50
2011,10,16,11,23,9.60
2011,10,16,11,24,9.60
2011,10,16,11,25,9.60
2011,10,16,11,26,9.60
2011,10,16,11,27,9.60
2011,10,16,11,28,9.70
2011,10,16,11,29,9.70
2011,10,16,11,30,9.70
2011,10,16,11,31,9.80
2011,10,16,11,32,9.80
2011,10,16,11,33,9.80
2011,10,16,11,34,9.90
2011,10,16,11,35,9.90
2011,10,16,11,36,10.00
2011,10,16,11,37,10.00
2011,10,16,11,38,10.10
2011,10,16,11,39,10.20
2011,10,16,11,40,10.20
2011,10,16,11,41,10.20
2011,10,16,11,42,10.30
2011,10,16,11,43,10.30
2011,10,16,11,44,10.40
2011,10,16,11,45,10.40
2011,10,16,11,46,10.40
2011,10,16,11,47,10.50
2011,10,16,11,48,10.50
2011,10,16,11,49,10.60
2011,10,16,11,50,10.60
2011,10,16,11,51,10.60
2011,10,16,11,52,10.70
2011,10,16,11,53,10.80
2011,10,16,11,54,10.80
2011,10,16,11,55,10.80
2011,10,16,11,56,10.90
2011,10,16,11,57,10.90
2011,10,16,11,58,10.80
2011,10,16,11,59,10.80
2011,10,16,12,00,10.80
2011,10,16,12,01,10.80
2011,10,16,12,02,10.80
2011,10,16,12,03,10.80
2011,10,16,12,04,10.80
2011,10,16,12,05,10.80
2011,10,16,12,06,10.90
2011,10,16,12,07,10.90
2011,10,16,12,08,10.90
2011,10,16,12,09,10.90
2011,10,16,12,10,10.90
2011,10,16,12,11,10.90
2011,10,16,12,12,10.90
2011,10,16,12,13,10.90
2011,10,16,12,14,10.90
2011,10,16,12,15,10.90
2011,10,16,12,16,10.90
2011,10,16,12,17,10.90
2011,10,16,12,18,11.00
2011,10,16,12,19,11.00
2011,10,16,12,20,11.00
2011,10,16,12,21,11.10
2011,10,16,12,22,11.20
2011,10,16,12,23,11.20
2011,10,16,12,24,11.30
2011,10,16,12,25,11.30
2011,10,16,12,26,11.30
2011,10,16,12,27,11.40
2011,10,16,12,28,11.40
2011,10,16,12,29,11.40
2011,10,16,12,30,11.50
2011,10,16,12,31,11.50
2011,10,16,12,32,11.60
2011,10,16,12,33,11.60
2011,10,16,12,34,11.70
2011,10,16,12,35,11.80
2011,10,16,12,36,11.80
2011,10,16,12,37,11.80
2011,10,16,12,38,11.90
2011,10,16,12,39,11.90
2011,10,16,12,40,11.90
2011,10,16,12,41,11.90
2011,10,16,12,42,12.00
2011,10,16,12,43,12.00
2011,10,16,12,44,12.00
2011,10,16,12,45,12.00
2011,10,16,12,46,12.10
2011,10,16,12,47,12.10
2011,10,16,12,48,12.10
2011,10,16,12,49,12.20
2011,10,16,12,50,12.20
2011,10,16,12,51,12.30
2011,10,16,12,52,12.30
2011,10,16,12,53,12.40
2011,10,16,12,54,12.40
2011,10,16,12,55,12.40
2011,10,16,12,56,12.50
2011,10,16,12,57,12.50
2011,10,16,12,58,12.50
2011,10,16,12,59,12.50
2011,10,16,13,00,12.60
2011,10,16,13,01,12.60
2011,10,16,13,02,12.60
2011,10,16,13,03,12.70
2011,10,16,13,04,12.70
2011,10,16,13,05,12.70
2011,10,16,13,06,12.80
2011,10,16,13,07,12.80
2011,10,16,13,08,12.80
2011,10,16,13,09,12.80
2011,10,16,13,10,12.80
2011,10,16,13,11,12.80
2011,10,16,13,12,12.80
2011,10,16,13,13,12.80
2011,10,16,13,14,12.90
2011,10,16,13,15,12.80
2011,10,16,13,16,12.80
2011,10,16,13,17,12.80
2011,10,16,13,18,12.90
2011,10,16,13,19,12.90
2011,10,16,13,20,12.90
2011,10,16,13,21,12.90
2011,10,16,13,22,12.90
2011,10,16,13,23,12.90
2011,10,16,13,24,12.90
2011,10,16,13,25,12.90
2011,10,16,13,26,12.90
2011,10,16,13,27,12.90
2011,10,16,13,28,12.90
2011,10,16,13,29,13.00
2011,10,16,13,30,13.00
2011,10,16,13,31,13.00
2011,10,16,13,32,13.10
2011,10,16,13,33,13.10
2011,10,16,13,34,13.10
2011,10,16,13,35,13.20
2011,10,16,13,36,13.20
2011,10,16,13,37,13.30
2011,10,16,13,38,13.30
2011,10,16,13,39,13.30
2011,10,16,13,40,13.40
2011,10,16,13,41,13.40
2011,10,16,13,42,13.40
2011,10,16,13,43,13.40
2011,10,16,13,44,13.40
2011,10,16,13,45,13.40
2011,10,16,13,46,13.40
2011,10,16,13,47,13.40
2011,10,16,13,48,13.40
2011,10,16,13,49,13.40
2011,10,16,13,50,13.40
2011,10,16,13,51,13.50
2011,10,16,13,52,13.50
2011,10,16,13,53,13.50
2011,10,16,13,54,13.60
2011,10,16,13,55,13.60
2011,10,16,13,56,13.60
2011,10,16,13,57,13.70
2011,10,16,13,58,13.70
2011,10,16,13,59,13.70
2011,10,16,14,00,13.70
2011,10,16,14,01,13.60
2011,10,16,14,02,13.60
2011,10,16,14,03,13.50
2011,10,16,14,04,13.40
2011,10,16,14,05,13.40
2011,10,16,14,06,13.40
2011,10,16,14,07,13.40
2011,10,16,14,08,13.40
2011,10,16,14,09,13.40
2011,10,16,14,10,13.40
2011,10,16,14,11,13.40
2011,10,16,14,12,13.40
2011,10,16,14,13,13.40
2011,10,16,14,14,13.30
2011,10,16,14,15,13.20
2011,10,16,14,16,13.20
2011,10,16,14,17,13.20
2011,10,16,14,18,13.30
2011,10,16,14,19,13.30
2011,10,16,14,20,13.40
2011,10,16,14,21,13.40
2011,10,16,14,22,13.40
2011,10,16,14,23,13.40
2011,10,16,14,24,13.40
2011,10,16,14,25,13.40
2011,10,16,14,26,13.40
2011,10,16,14,27,13.50
2011,10,16,14,28,13.50
2011,10,16,14,29,13.60
2011,10,16,14,30,13.60
2011,10,16,14,31,13.70
2011,10,16,14,32,13.80
2011,10,16,14,33,13.80
2011,10,16,14,34,13.80
2011,10,16,14,35,13.80
2011,10,16,14,36,13.80
2011,10,16,14,37,13.90
2011,10,16,14,38,13.90
2011,10,16,14,39,13.90
2011,10,16,14,40,13.90
2011,10,16,14,41,13.90
2011,10,16,14,42,14.00
2011,10,16,14,43,14.00
2011,10,16,14,44,14.00
2011,10,16,14,45,14.00
2011,10,16,14,46,13.90
2011,10,16,14,47,13.80
2011,10,16,14,48,13.70
2011,10,16,14,49,13.60
2011,10,16,14,50,13.50
2011,10,16,14,51,13.50
2011,10,16,14,52,13.50
2011,10,16,14,53,13.50
2011,10,16,14,54,13.50
2011,10,16,14,55,13.50
2011,10,16,14,56,13.60
2011,10,16,14,57,13.60
2011,10,16,14,58,13.60
2011,10,16,14,59,13.60
2011,10,16,15,00,13.60
2011,10,16,15,01,13.50
2011,10,16,15,02,13.40
2011,10,16,15,03,13.40
2011,10,16,15,04,13.40
2011,10,16,15,05,13.30
2011,10,16,15,06,13.30
2011,10,16,15,07,13.30
2011,10,16,15,08,13.30
2011,10,16,15,09,13.40
2011,10,16,15,10,13.40
2011,10,16,15,11,13.50
2011,10,16,15,12,13.60
2011,10,16,15,13,13.70
2011,10,16,15,14,13.70
2011,10,16,15,15,13.80
2011,10,16,15,16,13.80
2011,10,16,15,17,13.90
2011,10,16,15,18,13.90
2011,10,16,15,19,14.00
2011,10,16,15,20,14.00
2011,10,16,15,21,14.00
2011,10,16,15,22,14.00
2011,10,16,15,23,13.90
2011,10,16,15,24,13.80
2011,10,16,15,25,13.80
2011,10,16,15,26,13.70
2011,10,16,15,27,13.60
2011,10,16,15,28,13.50
2011,10,16,15,29,13.40
2011,10,16,15,30,13.30
2011,10,16,15,31,13.30
2011,10,16,15,32,13.20
2011,10,16,15,33,13.20
2011,10,16,15,34,13.20
2011,10,16,15,35,13.20
2011,10,16,15,36,13.20
2011,10,16,15,37,13.30
2011,10,16,15,38,13.30
2011,10,16,15,39,13.30
2011,10,16,15,40,13.30
2011,10,16,15,41,13.30
2011,10,16,15,42,13.40
2011,10,16,15,43,13.40
2011,10,16,15,44,13.40
2011,10,16,15,45,13.40
2011,10,16,15,46,13.40
2011,10,16,15,47,13.40
2011,10,16,15,48,13.40
2011,10,16,15,49,13.40
2011,10,16,15,50,13.40
2011,10,16,15,51,13.30
2011,10,16,15,52,13.30
2011,10,16,15,53,13.20
2011,10,16,15,54,13.20
2011,10,16,15,55,13.10
2011,10,16,15,56,13.10
2011,10,16,15,57,13.00
2011,10,16,15,58,12.90
2011,10,16,15,59,12.90
2011,10,16,16,00,12.90
2011,10,16,16,01,12.90
2011,10,16,16,02,12.90
2011,10,16,16,03,13.00
2011,10,16,16,04,13.00
2011,10,16,16,05,13.00
2011,10,16,16,06,13.10
2011,10,16,16,07,13.10
2011,10,16,16,08,13.10
2011,10,16,16,09,13.10
2011,10,16,16,10,13.10
2011,10,16,16,11,13.10
2011,10,16,16,12,13.10
2011,10,16,16,13,13.10
2011,10,16,16,14,13.10
2011,10,16,16,15,13.10
2011,10,16,16,16,13.10
2011,10,16,16,17,13.00
2011,10,16,16,18,12.90
2011,10,16,16,19,12.90
2011,10,16,16,20,12.90
2011,10,16,16,21,12.90
2011,10,16,16,22,12.90
2011,10,16,16,23,12.90
2011,10,16,16,24,12.90
2011,10,16,16,25,12.90
2011,10,16,16,26,13.00
2011,10,16,16,27,13.00
2011,10,16,16,28,13.00
2011,10,16,16,29,13.00
2011,10,16,16,30,13.10
2011,10,16,16,31,13.10
2011,10,16,16,32,13.10
2011,10,16,16,33,13.10
2011,10,16,16,34,13.10
2011,10,16,16,35,13.10
2011,10,16,16,36,13.10
2011,10,16,16,37,13.10
2011,10,16,16,38,13.20
2011,10,16,16,39,13.20
2011,10,16,16,40,13.20
2011,10,16,16,41,13.10
2011,10,16,16,42,13.10
2011,10,16,16,43,13.10
2011,10,16,16,44,13.10
2011,10,16,16,45,13.10
2011,10,16,16,46,13.10
2011,10,16,16,47,13.10
2011,10,16,16,48,13.10
2011,10,16,16,49,13.10
2011,10,16,16,50,13.10
2011,10,16,16,51,13.00
2011,10,16,16,52,13.00
2011,10,16,16,53,12.90
2011,10,16,16,54,12.90
2011,10,16,16,55,12.90
2011,10,16,16,56,12.80
2011,10,16,16,57,12.80
2011,10,16,16,58,12.80
2011,10,16,16,59,12.80
2011,10,16,17,00,12.80
2011,10,16,17,01,12.80
2011,10,16,17,02,12.80
2011,10,16,17,03,12.80
2011,10,16,17,04,12.80
2011,10,16,17,05,12.80
2011,10,16,17,06,12.80
2011,10,16,17,07,12.80
2011,10,16,17,08,12.70
2011,10,16,17,09,12.70
2011,10,16,17,10,12.60
2011,10,16,17,11,12.50
2011,10,16,17,12,12.50
2011,10,16,17,13,12.50
2011,10,16,17,14,12.40
2011,10,16,17,15,12.40
2011,10,16,17,16,12.40
2011,10,16,17,17,12.40
2011,10,16,17,18,12.30
2011,10,16,17,19,12.30
2011,10,16,17,20,12.30
2011,10,16,17,21,12.20
2011,10,16,17,22,12.20
2011,10,16,17,23,12.20
2011,10,16,17,24,12.20
2011,10,16,17,25,12.20
2011,10,16,17,26,12.20
2011,10,16,17,27,12.20
2011,10,16,17,28,12.20
2011,10,16,17,29,12.20
2011,10,16,17,30,12.20
2011,10,16,17,31,12.20
2011,10,16,17,32,12.20
2011,10,16,17,33,12.10
2011,10,16,17,34,12.10
2011,10,16,17,35,12.10
2011,10,16,17,36,12.10
2011,10,16,17,37,12.00
2011,10,16,17,38,12.00
2011,10,16,17,39,11.90
2011,10,16,17,40,11.90
2011,10,16,17,41,11.90
2011,10,16,17,42,11.80
2011,10,16,17,43,11.80
2011,10,16,17,44,11.80
2011,10,16,17,45,11.70
2011,10,16,17,46,11.70
2011,10,16,17,47,11.60
2011,10,16,17,48,11.60
2011,10,16,17,49,11.60
2011,10,16,17,50,11.50
2011,10,16,17,51,11.40
2011,10,16,17,52,11.40